GW0484 Weather Reports


Display with metric or nautical units.
time (UTC)temp
F
wind
direction
speed
MPH
gust
MPH
rain 1hr
in
rain 24hr
in
rain mn
in
humidity
%
barometer
mb
20260906031555 60 317 3.0 5.0 0.31 0.08 0.08 82 1015.4
20260906031051 62 40 4.0 6.0 0.00 0.03 0.03 69 1015.5
20260906030550 62 132 1.0 2.0 0.00 0.03 0.03 68 1016.5
20260906030049 62 14 5.0 7.0 0.00 0.03 0.03 68 1015.5
20260906025544 62 11 10.0 13.0 0.00 0.03 0.03 68 1014.6
20260906025042 62 11 13.0 17.0 0.00 0.03 0.03 68 1014.1
20260906024537 62 12 15.0 22.0 0.00 0.03 0.03 68 1014.0
20260906024032 62 16 19.0 22.0 0.00 0.03 0.03 68 1013.7
20260906023528 62 8 15.0 20.0 0.00 0.03 0.03 68 1013.9
20260906023022 62 6 13.0 14.0 0.00 0.03 0.03 68 1014.0
20260906022518 62 18 17.0 20.0 0.00 0.03 0.03 67 1013.7
20260906022013 63 25 18.0 20.0 0.00 0.03 0.03 67 1013.7
20260906021509 63 12 13.0 14.0 0.00 0.03 0.03 66 1013.8
20260906021003 63 14 15.0 18.0 0.00 0.03 0.03 66 1013.8
20260906020502 63 4 15.0 18.0 0.00 0.03 0.03 66 1013.7
20260906020001 64 21 15.0 17.0 0.00 0.03 0.03 65 1013.7
20260906015501 64 11 10.0 11.0 0.00 0.03 0.03 64 1013.8
20260906015001 65 12 14.0 15.0 0.00 0.03 0.03 63 1013.6
20260906014455 65 19 13.0 14.0 0.00 0.03 0.03 63 1013.6
20260906013951 65 357 11.0 13.0 0.00 0.03 0.03 62 1013.8
20260906013447 66 11 11.0 13.0 0.00 0.03 0.03 61 1013.5
20260906012942 66 358 5.0 8.0 0.00 0.03 0.03 60 1013.7
20260906012437 66 24 8.0 9.0 0.00 0.03 0.03 59 1013.6
20260906011936 67 4 8.0 10.0 0.00 0.03 0.03 59 1013.8
20260906011432 67 14 7.0 9.0 0.00 0.03 0.03 58 1013.7
20260906010927 67 25 10.0 11.0 0.00 0.03 0.03 58 1013.7
20260906010422 67 2 11.0 13.0 0.00 0.03 0.03 58 1013.9
20260906005918 68 40 12.0 14.0 0.00 0.03 0.03 56 1013.9
20260906005418 68 8 14.0 16.0 0.00 0.03 0.03 56 1013.7
20260906004916 68 25 12.0 14.0 0.00 0.03 0.03 55 1013.8
20260906004411 69 5 11.0 13.0 0.00 0.03 0.03 55 1013.5
20260906003907 69 2 13.0 15.0 0.00 0.03 0.03 54 1013.8
20260906003402 69 33 9.0 11.0 0.00 0.03 0.03 54 1013.6
20260906002857 70 3 10.0 11.0 0.00 0.03 0.03 54 1013.6
20260906002356 71 4 10.0 11.0 0.00 0.03 0.03 52 1013.9
20260906001852 71 351 13.0 15.0 0.00 0.03 0.03 50 1013.8
20260906001348 71 45 10.0 14.0 0.00 0.03 0.03 50 1013.8
20260906000842 72 24 8.0 9.0 0.00 0.03 0.03 46 1013.9
20260906000337 72 33 10.0 13.0 0.00 0.03 0.03 47 1013.8
20260905235837 72 358 13.0 15.0 0.00 0.03 0.03 47 1013.7
20260905235331 72 26 8.0 9.0 0.00 0.03 0.03 47 1013.6
20260905234827 73 37 4.0 6.0 0.00 0.03 0.03 46 1013.8
20260905234322 72 25 7.0 8.0 0.00 0.03 0.03 46 1014.0
20260905233817 72 46 5.0 6.0 0.00 0.03 0.03 46 1013.9
20260905233312 73 41 11.0 13.0 0.00 0.03 0.03 46 1014.1
20260905232811 73 41 13.0 14.0 0.00 0.03 0.03 47 1014.2
20260905232307 74 5 7.0 8.0 0.00 0.03 0.03 46 1013.9
20260905231803 74 12 3.0 3.0 0.00 0.03 0.03 45 1013.9
20260905231258 75 45 9.0 10.0 0.00 0.03 0.03 45 1013.9
20260905230754 77 40 10.0 13.0 0.00 0.03 0.03 43 1014.0
20260905230252 77 140 1.0 2.0 0.00 0.03 0.03 37 1013.9
20260905225751 75 136 1.0 1.0 0.00 0.03 0.03 40 1013.9
20260905225247 75 37 3.0 5.0 0.00 0.03 0.03 38 1013.8
20260905224746 75 40 3.0 7.0 0.00 0.03 0.03 38 1013.7
20260905224242 76 48 3.0 3.0 0.00 0.03 0.03 37 1013.7
20260905223737 74 142 0.0 1.0 0.00 0.03 0.03 39 1013.9
20260905223234 75 50 8.0 9.0 0.00 0.03 0.03 38 1013.9
20260905222730 76 316 4.0 8.0 0.00 0.03 0.03 37 1013.7
20260905222228 76 85 1.0 2.0 0.00 0.03 0.03 38 1014.1
20260905221725 75 127 0.0 1.0 0.00 0.03 0.03 37 1014.0
20260905221221 75 143 1.0 1.0 0.00 0.03 0.03 38 1014.0
20260905220717 75 133 1.0 1.0 0.00 0.03 0.03 39 1014.0
20260905220213 75 80 3.0 3.0 0.00 0.03 0.03 39 1014.1
20260905215712 76 169 2.0 2.0 0.00 0.03 0.03 38 1014.2
20260905215208 75 88 2.0 2.0 0.00 0.03 0.03 39 1014.5
20260905214704 74 315 4.0 5.0 0.00 0.03 0.03 39 1014.3
20260905214159 74 63 3.0 3.0 0.00 0.03 0.03 39 1014.5
20260905213654 75 75 4.0 6.0 0.00 0.03 0.03 39 1014.5
20260905213150 73 154 2.0 3.0 0.00 0.03 0.03 39 1014.3
20260905212645 74 313 2.0 5.0 0.00 0.03 0.03 41 1014.5
20260905212144 75 152 4.0 6.0 0.00 0.03 0.03 39 1014.3
20260905211639 75 106 1.0 2.0 0.00 0.03 0.03 40 1014.5
20260905211134 74 109 2.0 3.0 0.00 0.03 0.03 40 1014.6
20260905210631 73 92 2.0 2.0 0.00 0.03 0.03 41 1014.6
20260905210126 72 59 3.0 5.0 0.00 0.03 0.03 42 1014.6
20260905205625 73 73 3.0 3.0 0.00 0.03 0.03 41 1014.8
20260905205124 73 311 4.0 7.0 0.00 0.03 0.03 39 1014.6
20260905204624 75 3 3.0 6.0 0.00 0.03 0.03 40 1014.8
20260905204120 73 145 3.0 3.0 0.00 0.03 0.03 41 1015.0
20260905203619 73 20 4.0 5.0 0.00 0.03 0.03 41 1014.8
20260905203115 74 313 4.0 5.0 0.00 0.03 0.03 40 1014.5
20260905202610 73 131 1.0 2.0 0.00 0.03 0.03 42 1014.8
20260905202105 71 77 3.0 5.0 0.00 0.03 0.03 43 1014.9
20260905201601 71 27 4.0 5.0 0.00 0.03 0.03 43 1014.9
20260905201100 73 77 5.0 6.0 0.00 0.03 0.03 41 1014.9
20260905200556 72 112 0.0 1.0 0.00 0.03 0.03 45 1014.7
20260905200056 72 75 3.0 5.0 0.00 0.03 0.03 42 1015.1
20260905195550 70 132 1.0 2.0 0.00 0.03 0.03 45 1014.9
20260905195046 70 250 3.0 3.0 0.00 0.03 0.03 45 1014.9
20260905194545 72 322 9.0 10.0 0.00 0.03 0.03 44 1014.8
20260905194044 73 149 2.0 3.0 0.00 0.03 0.03 42 1015.1
20260905193539 71 135 0.0 0.0 0.00 0.03 0.03 45 1015.0
20260905193035 71 222 2.0 2.0 0.00 0.03 0.03 43 1015.1
20260905192530 71 284 5.0 8.0 0.00 0.03 0.03 45 1015.0
20260905192026 72 112 1.0 2.0 0.00 0.03 0.03 46 1015.2
20260905191525 71 124 1.0 2.0 0.00 0.03 0.03 47 1015.2
20260905191024 71 72 0.0 1.0 0.00 0.03 0.03 47 1015.3
20260905190522 71 61 1.0 3.0 0.00 0.03 0.03 45 1015.2
20260905190016 70 34 5.0 6.0 0.00 0.03 0.03 45 1015.4
20260905185515 70 175 4.0 5.0 0.00 0.03 0.03 46 1015.4
20260905185015 71 292 8.0 10.0 0.00 0.03 0.03 45 1015.7
20260905184510 69 333 4.0 6.0 0.00 0.03 0.03 49 1015.5
20260905184008 71 321 7.0 8.0 0.00 0.03 0.03 45 1015.5
20260905183508 71 7 2.0 3.0 0.00 0.03 0.03 49 1015.7
20260905183003 71 4 4.0 8.0 0.00 0.03 0.03 48 1015.7
20260905182503 69 27 0.0 1.0 0.00 0.03 0.03 52 1015.8
20260905181957 69 238 5.0 6.0 0.00 0.03 0.03 52 1015.8
20260905181453 69 151 6.0 8.0 0.00 0.03 0.03 53 1015.5
20260905180952 69 336 4.0 7.0 0.00 0.03 0.03 49 1016.0
20260905180446 70 301 5.0 6.0 0.00 0.03 0.03 54 1015.5
20260905175942 71 124 4.0 7.0 0.00 0.03 0.03 53 1015.8
20260905175441 71 146 1.0 1.0 0.00 0.03 0.03 50 1015.8
20260905174937 69 92 1.0 2.0 0.00 0.03 0.03 53 1016.1
20260905174432 69 173 5.0 9.0 0.00 0.03 0.03 52 1015.9
20260905173927 69 236 4.0 5.0 0.00 0.03 0.03 53 1015.7
20260905173424 69 108 2.0 2.0 0.00 0.03 0.03 53 1015.9
20260905172919 70 126 0.0 0.0 0.00 0.03 0.03 52 1016.0
20260905172417 68 123 1.0 1.0 0.00 0.03 0.03 56 1015.9
20260905171913 69 352 4.0 5.0 0.00 0.03 0.03 53 1015.5
20260905171409 68 144 1.0 2.0 0.00 0.03 0.03 57 1016.0
20260905170905 68 138 2.0 2.0 0.00 0.03 0.03 57 1015.9
20260905170401 68 15 2.0 3.0 0.00 0.03 0.03 58 1016.1
20260905165900 68 130 2.0 2.0 0.00 0.03 0.03 62 1015.8
20260905165355 67 135 0.0 1.0 0.00 0.03 0.03 62 1015.9
20260905164850 66 199 3.0 5.0 0.00 0.03 0.03 66 1016.2
20260905164345 64 131 1.0 2.0 0.00 0.03 0.03 69 1016.0
20260905163840 63 266 4.0 5.0 0.00 0.03 0.03 70 1016.0
20260905163336 62 213 3.0 3.0 0.00 0.03 0.03 74 1016.1
20260905162832 62 272 3.0 5.0 0.00 0.03 0.03 76 1016.0
20260905162326 62 139 1.0 1.0 0.00 0.03 0.03 76 1016.0
20260905161821 61 145 0.0 1.0 0.00 0.03 0.03 79 1016.1
20260905161320 61 159 2.0 2.0 0.00 0.03 0.03 80 1016.0
20260905160819 60 256 4.0 5.0 0.00 0.03 0.03 80 1016.1
20260905160313 60 128 2.0 3.0 0.00 0.03 0.03 79 1016.0
20260905155808 61 308 3.0 5.0 0.00 0.03 0.03 78 1016.0
20260905155307 60 183 2.0 2.0 0.00 0.03 0.03 80 1015.9
20260905154801 60 160 2.0 2.0 0.00 0.03 0.03 82 1016.0
20260905154257 59 136 0.0 1.0 0.00 0.03 0.03 83 1016.0
20260905153752 58 246 3.0 3.0 0.00 0.03 0.03 84 1016.1
20260905153248 58 281 3.0 3.0 0.00 0.03 0.03 84 1016.1
20260905152742 58 134 1.0 1.0 0.00 0.03 0.03 86 1016.0
20260905152236 58 127 0.0 0.0 0.00 0.03 0.03 88 1016.0
20260905151731 57 128 0.0 0.0 0.00 0.03 0.03 89 1015.9
20260905151227 57 126 0.0 0.0 0.00 0.03 0.03 90 1015.8
20260905150726 57 12 1.0 3.0 0.00 0.03 0.03 91 1015.7
20260905150225 56 114 0.0 1.0 0.00 0.03 0.03 92 1016.0
20260905145723 57 128 0.0 0.0 0.00 0.03 0.03 93 1016.1
20260905145218 55 133 0.0 0.0 0.00 0.03 0.03 94 1016.0
20260905144717 55 98 2.0 2.0 0.00 0.03 0.03 93 1015.3
20260905144218 55 122 0.0 0.0 0.00 0.03 0.03 94 1015.3
20260905143712 55 129 0.0 0.0 0.00 0.03 0.03 94 1015.7
20260905143212 54 150 1.0 1.0 0.00 0.03 0.03 94 1015.7
20260905142710 54 112 1.0 1.0 0.00 0.03 0.03 94 1015.7
20260905142205 54 118 0.0 0.0 0.00 0.03 0.03 94 1015.7
20260905141700 53 129 0.0 0.0 0.00 0.03 0.03 94 1015.5
20260905141156 53 126 0.0 1.0 0.00 0.03 0.03 94 1014.9
20260905140651 53 121 1.0 1.0 0.00 0.03 0.03 93 1015.0
20260905140150 53 125 0.0 0.0 0.00 0.03 0.03 93 1015.2
20260905135645 53 123 1.0 2.0 0.05 0.03 0.03 93 1015.2
20260905135136 53 135 0.0 0.0 0.05 0.03 0.03 92 1015.1
20260905134630 53 125 1.0 1.0 0.05 0.03 0.03 92 1015.2
20260905134129 53 304 6.0 7.0 0.14 0.02 0.02 91 1015.9
20260905133625 53 303 9.0 9.0 0.07 0.01 0.01 90 1016.1
20260905133125 53 260 8.0 9.0 0.00 0.00 0.00 88 1016.5
20260905132624 53 251 8.0 8.0 0.00 0.00 0.00 87 1016.4
20260905132119 54 264 8.0 9.0 0.00 0.00 0.00 85 1016.3
20260905131614 53 286 11.0 14.0 0.00 0.00 0.00 85 1015.8
20260905131109 53 277 9.0 11.0 0.00 0.00 0.00 86 1015.5
20260905130609 53 307 7.0 9.0 0.00 0.00 0.00 86 1015.2
20260905125603 53 120 3.0 3.0 0.00 0.00 0.00 84 1014.5
20260905125059 53 135 0.0 0.0 0.00 0.00 0.00 85 1014.2
20260905124555 52 127 0.0 0.0 0.00 0.00 0.00 85 1014.2
20260905124051 53 131 0.0 0.0 0.00 0.00 0.00 84 1014.0
20260905123546 53 130 1.0 1.0 0.00 0.00 0.00 83 1014.5
20260905123043 53 126 0.0 0.0 0.00 0.00 0.00 82 1014.8
20260905122542 53 129 0.0 0.0 0.00 0.00 0.00 81 1015.1
20260905122037 53 129 0.0 0.0 0.00 0.00 0.00 81 1015.0
20260905121532 53 116 1.0 1.0 0.00 0.00 0.00 80 1014.9
20260905121026 53 88 2.0 2.0 0.00 0.00 0.00 80 1014.7
20260905120521 54 304 3.0 3.0 0.00 0.00 0.00 80 1014.9
20260905120016 54 267 3.0 3.0 0.00 0.00 0.00 78 1014.9
20260905115515 53 235 3.0 3.0 0.00 0.00 0.00 79 1014.8
20260905115009 52 145 2.0 2.0 0.00 0.00 0.00 81 1015.1
20260905114504 51 148 2.0 2.0 0.00 0.00 0.00 85 1015.1
20260905114003 50 140 1.0 1.0 0.00 0.00 0.00 85 1015.0
20260905113458 50 133 1.0 1.0 0.00 0.00 0.00 85 1014.9
20260905112953 49 135 0.0 0.0 0.00 0.00 0.00 86 1014.5
20260905112448 50 124 0.0 0.0 0.00 0.00 0.00 85 1014.2
20260905111944 50 129 0.0 0.0 0.00 0.00 0.00 84 1014.2
20260905111443 50 126 0.0 0.0 0.00 0.00 0.00 84 1014.3
20260905110938 50 113 0.0 0.0 0.00 0.00 0.00 83 1013.9
20260905110431 50 137 1.0 1.0 0.00 0.00 0.00 83 1014.3
20260905105932 50 128 0.0 0.0 0.00 0.00 0.00 83 1014.5
20260905105426 50 125 0.0 1.0 0.00 0.00 0.00 83 1014.5
20260905104925 50 136 0.0 1.0 0.00 0.00 0.00 83 1014.6
20260905104421 50 132 1.0 1.0 0.00 0.00 0.00 83 1014.0
20260905103916 50 126 0.0 0.0 0.00 0.00 0.00 82 1013.6
20260905103412 50 130 0.0 0.0 0.00 0.00 0.00 82 1013.2
20260905102907 51 130 0.0 0.0 0.00 0.00 0.00 81 1013.9
20260905102403 51 129 0.0 0.0 0.00 0.00 0.00 81 1013.8
20260905101858 52 136 0.0 0.0 0.00 0.00 0.00 79 1013.2
20260905101356 52 312 5.0 5.0 0.00 0.00 0.00 79 1013.2
20260905100857 52 257 10.0 13.0 0.00 0.00 0.00 79 1013.4
20260905100353 51 271 6.0 8.0 0.00 0.00 0.00 80 1013.4
20260905095851 51 298 6.0 7.0 0.00 0.00 0.00 80 1013.6
20260905095346 51 206 3.0 5.0 0.00 0.00 0.00 80 1013.6
20260905094841 51 279 5.0 6.0 0.00 0.00 0.00 81 1013.5
20260905094337 51 167 1.0 2.0 0.00 0.00 0.00 80 1013.4
20260905093835 51 259 6.0 7.0 0.00 0.00 0.00 79 1013.2
20260905093326 51 239 7.0 8.0 0.00 0.00 0.00 79 1013.0
20260905092822 52 235 6.0 7.0 0.00 0.00 0.00 78 1013.2
20260905092321 51 244 9.0 11.0 0.00 0.00 0.00 79 1013.4
20260905091817 50 251 8.0 9.0 0.00 0.00 0.00 81 1013.4
20260905091316 49 253 9.0 11.0 0.00 0.00 0.00 82 1013.2
20260905090815 50 248 5.0 6.0 0.00 0.00 0.00 82 1013.2
20260905090311 50 163 2.0 2.0 0.00 0.00 0.00 82 1012.9
20260905085811 50 265 3.0 3.0 0.00 0.00 0.00 82 1012.9
20260905085310 50 255 3.0 5.0 0.00 0.00 0.00 82 1012.9
20260905084800 51 144 0.0 1.0 0.00 0.00 0.00 80 1012.9
20260905084300 52 172 1.0 2.0 0.00 0.00 0.00 79 1012.7
20260905083755 52 217 2.0 2.0 0.00 0.00 0.00 77 1012.6
20260905083251 53 136 0.0 0.0 0.00 0.00 0.00 77 1012.5
20260905082746 54 169 2.0 2.0 0.00 0.00 0.00 76 1012.7
20260905082242 54 157 2.0 2.0 0.00 0.00 0.00 74 1012.4
20260905081741 54 131 0.0 1.0 0.00 0.00 0.00 74 1012.2
20260905081237 55 124 0.0 0.0 0.00 0.00 0.00 73 1011.9
20260905080731 55 59 4.0 6.0 0.00 0.00 0.00 72 1011.9
20260905080231 54 42 6.0 7.0 0.00 0.00 0.00 72 1011.8
20260905075730 54 39 4.0 5.0 0.00 0.00 0.00 74 1012.0
20260905075229 54 24 3.0 3.0 0.00 0.00 0.00 73 1012.7
20260905074728 55 147 1.0 1.0 0.00 0.00 0.00 73 1013.2
20260905074224 55 115 0.0 1.0 0.00 0.00 0.00 71 1013.4
20260905073719 56 296 5.0 6.0 0.00 0.00 0.00 69 1013.5
20260905073215 55 289 4.0 5.0 0.00 0.00 0.00 69 1013.6
20260905072714 55 296 3.0 5.0 0.00 0.00 0.00 72 1013.9
20260905072210 55 112 0.0 0.0 0.00 0.00 0.00 72 1013.7
20260905071706 55 69 3.0 3.0 0.00 0.00 0.00 72 1013.5
20260905071202 55 130 0.0 0.0 0.00 0.00 0.00 71 1013.4
20260905070656 55 314 2.0 3.0 0.00 0.00 0.00 71 1013.7
20260905070152 55 100 1.0 1.0 0.00 0.00 0.00 72 1013.4
20260905065651 54 41 3.0 3.0 0.00 0.00 0.00 73 1013.1
20260905065145 54 118 0.0 1.0 0.00 0.00 0.00 73 1013.0
20260905064641 55 109 0.0 0.0 0.00 0.00 0.00 73 1012.7
20260905064137 55 180 4.0 6.0 0.00 0.00 0.00 72 1012.6
20260905063635 55 149 3.0 5.0 0.00 0.00 0.00 71 1012.4
20260905063132 55 43 2.0 3.0 0.00 0.00 0.00 71 1012.4
20260905062627 56 137 3.0 3.0 0.00 0.00 0.00 70 1012.6
20260905062126 56 10 7.0 8.0 0.00 0.00 0.00 69 1012.7
20260905061621 56 276 8.0 10.0 0.00 0.00 0.00 70 1012.6
20260905061121 56 312 9.0 10.0 0.00 0.00 0.00 70 1012.7
20260905060616 55 322 6.0 8.0 0.00 0.00 0.00 72 1012.6
20260905060113 54 240 3.0 5.0 0.00 0.00 0.00 75 1012.7
20260905055611 54 128 2.0 2.0 0.00 0.00 0.00 73 1012.7
20260905055106 55 258 2.0 2.0 0.00 0.00 0.00 71 1012.5
20260905054602 55 94 2.0 2.0 0.00 0.00 0.00 71 1012.7
20260905054057 56 131 1.0 2.0 0.00 0.00 0.00 69 1012.6
20260905053556 57 69 2.0 2.0 0.00 0.00 0.00 66 1012.4
20260905053052 57 174 2.0 2.0 0.00 0.00 0.00 64 1012.6
20260905052551 58 319 3.0 3.0 0.00 0.00 0.00 63 1012.5
20260905052046 57 188 5.0 6.0 0.00 0.00 0.00 63 1012.4
20260905051542 55 131 0.0 0.0 0.00 0.00 0.00 65 1012.4
20260905051038 55 131 0.0 0.0 0.00 0.00 0.00 66 1012.3
20260905050534 56 117 1.0 2.0 0.00 0.00 0.00 64 1012.0
20260905050031 56 83 3.0 3.0 0.00 0.00 0.00 63 1012.3
20260905045525 56 132 0.0 0.0 0.00 0.00 0.00 62 1012.4
20260905045021 55 127 1.0 1.0 0.00 0.00 0.00 65 1012.6
20260905044520 56 119 0.0 1.0 0.00 0.00 0.00 64 1012.6
20260905044015 57 124 0.0 0.0 0.00 0.00 0.00 62 1012.4
20260905043515 57 194 2.0 2.0 0.00 0.00 0.00 61 1012.0
20260905043010 57 147 1.0 1.0 0.00 0.00 0.00 61 1012.0
20260905042508 58 119 0.0 1.0 0.00 0.00 0.00 61 1011.6
20260905042004 58 105 1.0 1.0 0.00 0.00 0.00 59 1011.9
20260905041459 59 97 2.0 2.0 0.00 0.00 0.00 58 1011.8
20260905040955 60 81 2.0 2.0 0.00 0.00 0.00 58 1011.8
20260905040454 59 158 2.0 2.0 0.00 0.00 0.00 54 1012.8
20260905035953 59 136 0.0 0.0 0.00 0.00 0.00 59 1012.5
20260905035448 60 139 0.0 1.0 0.00 0.00 0.00 57 1011.9
20260905034946 60 154 1.0 1.0 0.00 0.00 0.00 55 1012.0
20260905034441 59 141 1.0 1.0 0.00 0.00 0.00 57 1011.6
20260905033939 60 141 0.0 0.0 0.00 0.00 0.00 55 1011.2
20260905033439 60 154 1.0 1.0 0.00 0.00 0.00 55 1011.1
20260905032934 60 114 1.0 2.0 0.00 0.00 0.00 54 1011.1
20260905032430 60 123 0.0 0.0 0.00 0.00 0.00 55 1010.7
20260905031924 61 121 0.0 0.0 0.00 0.00 0.00 54 1010.6